This is the latest recevied weather packets stored in our database for station/object KC0CAU. If no packets are shown the sender has not sent any weather packets the latest 10 day(s).
| Time | Temp. | Humidity | Pressure | Rain* | Wind** | Luminosity | Snow |
|---|---|---|---|---|---|---|---|
| 1778084162 | 5° C | 54% | 1021.5 hPa | 0 mm | - | - | - |
| 1778083271 | 4.44° C | 54% | 1021.5 hPa | 0 mm | - | - | - |
| 1778082359 | 4.44° C | 52% | 1021.5 hPa | 0 mm | - | - | - |
| 1778081458 | 4.44° C | 53% | 1021.5 hPa | 0 mm | - | - | - |
| 1778080558 | 4.44° C | 53% | 1021.6 hPa | 0 mm | - | - | - |
| 1778079654 | 4.44° C | 54% | 1021.6 hPa | 0 mm | - | - | - |
| 1778078752 | 3.89° C | 55% | 1021.6 hPa | 0 mm | - | - | - |
| 1778077848 | 3.33° C | 59% | 1021.7 hPa | 0 mm | - | - | - |
| 1778076945 | 2.78° C | 60% | 1021.7 hPa | 0 mm | - | - | - |
| 1778076042 | 2.22° C | 64% | 1021.7 hPa | 0 mm | - | - | - |
| 1778075137 | 1.67° C | 67% | 1021.8 hPa | 0 mm | - | - | - |
| 1778074234 | 1.11° C | 69% | 1021.9 hPa | 0 mm | - | - | - |
| 1778073344 | 0° C | 69% | 1021.9 hPa | 0 mm | - | - | - |
| 1778072437 | 0° C | 71% | 1021.9 hPa | 0 mm | - | - | - |
| 1778071526 | -0.56° C | 72% | 1021.7 hPa | 0 mm | - | - | - |
| 1778070626 | -1.11° C | 73% | 1021.6 hPa | 0 mm | - | - | - |
| 1778069724 | -1.11° C | 73% | 1021.5 hPa | 0 mm | - | - | - |
| 1778068824 | -1.67° C | 74% | 1021.3 hPa | 0 mm | - | - | - |
| 1778067923 | -1.67° C | 73% | 1021.1 hPa | 0 mm | - | - | - |
| 1778067023 | -1.67° C | 73% | 1021.1 hPa | 0 mm | - | - | - |
| 1778066119 | -1.67° C | 73% | 1021.1 hPa | 0 mm | - | - | - |
| 1778065219 | -1.67° C | 73% | 1020.8 hPa | 0 mm | - | - | - |
| 1778064317 | -1.67° C | 73% | 1020.8 hPa | 0 mm | - | - | - |
| 1778063425 | -1.67° C | 73% | 1020.9 hPa | 0 mm | - | - | - |
| 1778062516 | -1.67° C | 72% | 1020.9 hPa | 0 mm | - | - | - |
* Rain latest hour (hover to see other rain measurements)
** Current wind speed in m/s (hover to see current wind gust speed)